O3B PFM

Last updated on Sat Sep 12 2026 00:03:21 GMT+0000 (Coordinated Universal Time)

1 39191U 13031D 26254.19187923 -.00000028 00000+0 00000+0 0 9999 2 39191 0.0620 338.3052 0004873 168.6449 213.0798 5.00116075240963
UTC large
Height (km)
Speed (km/s)
/
Latitude / Longitude
Inclination (degrees)
Orbital Period (minutes)
Azimuth
Elevation
Range (km)
Doppler Factor

Next 0 passes for location: London (51.5072 / 0.1276)

No passes found over London.
O3B PFM